Location: Newark
(40.7360°N, 74.1730°W)
Time: 10:16:08
(UTC-04:00)

Amateur Radio Satellites - All Passes

Search period start: 01 October 2014 09:46
Search period end: 02 October 2014 09:46
Location: Newark, 40.7360°N, 74.1730°W

Satellite Date Start Highest point End Downlink Frequencies (MHz)
Time Altitude Azimuth
UKube-1 01 Oct 09:48:10 09:51:40 23° 95° (E) 09:55:09 145.840 MHz, 145.915 MHz
RS-15 01 Oct 10:02:31 10:12:40 39° 40° (NE) 10:23:07 29.354 - 29.394 USB, Beacon 29.352 USB
ZACube-1 01 Oct 10:28:21 10:31:55 22° 93° (E) 10:35:24 437.345 MHz
Sapphire 01 Oct 10:43:43 10:48:45 39° 307° (NW) 10:53:49 437.095 MHz 1200 baud AX-25 AFSK
HO-68 01 Oct 10:51:10 10:58:08 55° 292° (WNW) 11:05:05 435.675 MHz FM
Oscar 11 01 Oct 10:53:59 10:58:19 79° 284° (WNW) 11:02:37 145.825 FM, Beacon 2401.500 USB
PCSat 01 Oct 11:10:18 11:14:39 24° 312° (NW) 11:19:01 145.825 MHz
FUNcube-1 01 Oct 11:18:38 11:23:13 79° 102° (ESE) 11:27:39 145.950 - 145.970 MHz USB
UKube-1 01 Oct 11:24:01 11:27:52 31° 291° (WNW) 11:31:42 145.840 MHz, 145.915 MHz
ZACube-1 01 Oct 12:04:16 12:08:22 34° 290° (WNW) 12:12:23 437.345 MHz
RS-15 01 Oct 12:14:51 12:25:55 72° 244° (WSW) 12:37:27 29.354 - 29.394 USB, Beacon 29.352 USB
JAS-1B 01 Oct 12:27:08 12:31:34 18° 61° (ENE) 12:35:37 435.800 - 435.900 CW/SSB
Oscar 16 01 Oct 12:37:34 12:41:39 24° 65° (ENE) 12:45:44 437.025 USB, Beacon 2401.1428
HO-68 01 Oct 12:43:03 12:44:16 11° 312° (NW) 12:45:29 435.675 MHz FM
AO-Echo 01 Oct 12:47:27 12:49:17 12° 60° (ENE) 12:51:08 ?
AO-27 01 Oct 12:49:23 12:51:42 13° 59° (ENE) 12:54:02 436.795 MHz FM
FUNcube-1 01 Oct 12:57:39 12:58:53 11° 299° (WNW) 13:00:07 145.950 - 145.970 MHz USB
Gurwin Techsat 1B 01 Oct 13:16:30 13:18:07 11° 58° (ENE) 13:19:44 435.225 FM
Oscar 19 01 Oct 13:34:17 13:39:28 77° 75° (ENE) 13:44:40 437.125 CW, 437.150 USB
TMSAT-1 01 Oct 13:43:27 13:46:23 15° 61° (ENE) 13:49:20 436.925 FM
ITAMSAT 1 01 Oct 13:47:08 13:51:59 43° 70° (ENE) 13:56:52 435.822 SSB
Uribyol 2 01 Oct 13:47:50 13:52:46 46° 70° (ENE) 13:57:44 436.500 FM
Saudisat 1A 01 Oct 13:57:32 14:01:46 50° 118° (ESE) 14:06:03 436.775 MHz
AO-7 01 Oct 14:00:26 14:04:08 14° 45° (NE) 14:07:50 29.400 - 29.500 MHz
JAS-1B 01 Oct 14:13:56 14:21:41 82° 256° (WSW) 14:28:10 435.800 - 435.900 CW/SSB
Oscar 16 01 Oct 14:15:48 14:20:43 43° 261° (W) 14:25:40 437.025 USB, Beacon 2401.1428
AO-Echo 01 Oct 14:22:45 14:27:25 74° 258° (WSW) 14:32:09 ?
AO-27 01 Oct 14:25:18 14:30:29 83° 256° (WSW) 14:35:43 436.795 MHz FM
RS-15 01 Oct 14:30:49 14:36:15 15° 263° (W) 14:41:48 29.354 - 29.394 USB, Beacon 29.352 USB
Gurwin Techsat 1B 01 Oct 14:51:56 14:57:14 84° 75° (ENE) 15:02:34 435.225 FM
Oscar 19 01 Oct 15:17:16 15:19:22 12° 271° (W) 15:21:28 437.125 CW, 437.150 USB
TMSAT-1 01 Oct 15:20:23 15:25:40 74° 258° (WSW) 15:30:59 436.925 FM
ITAMSAT 1 01 Oct 15:27:37 15:31:38 23° 266° (W) 15:35:41 435.822 SSB
Uribyol 2 01 Oct 15:28:35 15:32:27 21° 267° (W) 15:36:21 436.500 FM
MaSat-1 01 Oct 15:31:45 15:35:02 63° 248° (WSW) 15:37:52 437.345 MHz
Saudisat 1A 01 Oct 15:38:20 15:41:37 20° 316° (NW) 15:44:56 436.775 MHz
Uosat F 01 Oct 15:44:44 15:49:08 33° 68° (ENE) 15:53:34 435.120 FM
AO-7 01 Oct 15:47:09 15:55:14 61° 66° (ENE) 16:03:20 29.400 - 29.500 MHz
KITSAT 1 01 Oct 16:08:41 16:15:21 29° 106° (ESE) 16:22:01 435.175 FM
JAS-1B 01 Oct 16:10:01 16:12:50 12° 269° (W) 16:15:31 435.800 - 435.900 CW/SSB
JAS-2 01 Oct 16:24:30 16:27:09 14° 58° (ENE) 16:29:52 435.800 - 435.900 CW/SSB, 435.910 FM
Gurwin Techsat 1B 01 Oct 16:36:10 16:37:50 11° 272° (W) 16:39:29 435.225 FM
Uosat F 01 Oct 17:23:37 17:27:54 28° 264° (W) 17:32:13 435.120 FM
OPAL 01 Oct 17:32:45 17:37:34 42° 101° (E) 17:42:17 ?
AO-7 01 Oct 17:41:26 17:48:25 30° 264° (W) 17:55:27 29.400 - 29.500 MHz
Oscar 10/S400 01 Oct 17:48:38 18:07:16 56° 164° (SSE) 19:15:24 145.825 - 145.975 CW/USB, Beacon 145.810 USB
Sapphire 01 Oct 17:48:40 17:53:11 26° 48° (NE) 17:57:41 437.095 MHz 1200 baud AX-25 AFSK
Hamsat 01 Oct 17:52:59 17:57:18 71° 76° (ENE) 18:01:36 145.90 MHz
KITSAT 1 01 Oct 18:02:11 18:10:11 63° 305° (NW) 18:18:13 435.175 FM
JAS-2 01 Oct 18:06:21 18:11:30 73° 258° (WSW) 18:16:57 435.800 - 435.900 CW/SSB, 435.910 FM
SO-67 01 Oct 18:12:02 18:13:18 12° 66° (ENE) 18:14:35 435.3500 MHz FM
PCSat 01 Oct 18:13:52 18:19:02 42° 54° (NE) 18:24:08 145.825 MHz
STRAND 1 01 Oct 18:36:24 18:39:19 15° 91° (E) 18:42:12 ?
AO-40 01 Oct 18:44:17 23:56:19 39° 186° (S) 05:26:21 Beacon 2401.320
SO-50 01 Oct 18:59:57 19:04:10 42° 116° (ESE) 19:08:29 436.795 FM
OPAL 01 Oct 19:12:09 19:16:11 24° 297° (WNW) 19:20:10 ?
Sapphire 01 Oct 19:31:38 19:36:52 50° 247° (WSW) 19:42:04 437.095 MHz 1200 baud AX-25 AFSK
HO-68 01 Oct 19:33:36 19:38:47 22° 57° (ENE) 19:44:00 435.675 MHz FM
SO-67 01 Oct 19:42:42 19:45:57 39° 262° (W) 19:49:12 435.3500 MHz FM
PCSat 01 Oct 19:57:41 20:02:13 28° 252° (WSW) 20:06:44 145.825 MHz
KITSAT 1 01 Oct 20:02:00 20:07:22 19° 329° (NNW) 20:12:46 435.175 FM
STRAND 1 01 Oct 20:13:49 20:18:55 64° 287° (WNW) 20:24:00 ?
SO-50 01 Oct 20:41:12 20:44:53 24° 315° (NW) 20:48:40 436.795 FM
UKube-1 01 Oct 20:43:50 20:47:02 21° 66° (ENE) 20:50:15 145.840 MHz, 145.915 MHz
UOSAT-12 01 Oct 21:04:02 21:08:36 66° 119° (ESE) 21:13:17 437.025 FM, 437.400 FM
PANSAT 01 Oct 21:16:50 21:18:43 13° 180° (S) 21:20:37 not established
HO-68 01 Oct 21:18:38 21:25:46 75° 255° (WSW) 21:32:57 435.675 MHz FM
ZACube-1 01 Oct 21:24:56 21:28:08 19° 65° (ENE) 21:31:22 437.345 MHz
Oscar 11 01 Oct 21:48:23 21:52:44 77° 76° (ENE) 21:57:06 145.825 FM, Beacon 2401.500 USB
FUNcube-1 01 Oct 22:14:17 22:18:44 60° 74° (ENE) 22:23:18 145.950 - 145.970 MHz USB
ISS 01 Oct 22:17:13 22:20:32 85° 143° (SE) 22:23:53 145.800 FM
UKube-1 01 Oct 22:19:01 22:23:00 35° 262° (W) 22:27:00 145.840 MHz, 145.915 MHz
Saudisat 1A 01 Oct 22:24:28 22:28:38 38° 51° (NE) 22:32:45 436.775 MHz
UOSAT-12 01 Oct 22:45:56 22:49:13 19° 318° (NW) 22:52:33 437.025 FM, 437.400 FM
ZACube-1 01 Oct 22:59:51 23:04:11 44° 262° (W) 23:08:36 437.345 MHz
HO-68 01 Oct 23:12:24 23:14:34 11° 273° (W) 23:16:44 435.675 MHz FM
FUNcube-1 01 Oct 23:53:25 23:55:31 13° 270° (W) 23:57:39 145.950 - 145.970 MHz USB
ISS 01 Oct 23:55:04 23:57:35 20° 341° (NNW) 00:00:07 145.800 FM
KITSAT 1 02 Oct 00:01:06 00:06:28 19° 31° (NNE) 00:11:48 435.175 FM
Saudisat 1A 02 Oct 00:04:31 00:07:58 23° 248° (WSW) 00:11:25 436.775 MHz
RS-15 02 Oct 00:31:15 00:37:37 18° 99° (E) 00:43:55 29.354 - 29.394 USB, Beacon 29.352 USB
ISS 02 Oct 01:33:42 01:35:16 13° 1° (N) 01:36:50 145.800 FM
Oscar 19 02 Oct 01:46:47 01:51:09 27° 95° (E) 01:55:27 437.125 CW, 437.150 USB
KITSAT 1 02 Oct 01:55:39 02:03:40 63° 55° (NE) 02:11:38 435.175 FM
JAS-1B 02 Oct 01:59:19 02:03:48 23° 95° (E) 02:08:34 435.800 - 435.900 CW/SSB
ITAMSAT 1 02 Oct 02:01:32 02:04:36 16° 91° (E) 02:07:39 435.822 SSB
Uribyol 2 02 Oct 02:01:59 02:05:19 17° 92° (E) 02:08:37 436.500 FM
Oscar 16 02 Oct 02:27:29 02:32:38 70° 102° (ESE) 02:37:44 437.025 USB, Beacon 2401.1428
AO-Echo 02 Oct 02:29:54 02:34:34 36° 98° (E) 02:39:19 ?
RS-15 02 Oct 02:37:04 02:48:06 80° 119° (ESE) 02:59:02 29.354 - 29.394 USB, Beacon 29.352 USB
AO-27 02 Oct 02:38:53 02:43:42 36° 98° (E) 02:48:29 436.795 MHz FM
Gurwin Techsat 1B 02 Oct 03:08:46 03:13:36 34° 97° (E) 03:18:23 435.225 FM
ISS 02 Oct 03:10:13 03:12:54 22° 21° (NNE) 03:15:36 145.800 FM
OPAL 02 Oct 03:13:31 03:14:18 10° 55° (NE) 03:15:05 ?
Oscar 19 02 Oct 03:25:52 03:30:31 35° 292° (WNW) 03:35:07 437.125 CW, 437.150 USB
SO-50 02 Oct 03:31:32 03:36:03 39° 51° (NE) 03:40:37 436.795 FM
TMSAT-1 02 Oct 03:36:38 03:41:44 46° 99° (E) 03:46:48 436.925 FM
ITAMSAT 1 02 Oct 03:39:20 03:44:31 63° 287° (WNW) 03:49:40 435.822 SSB
Uribyol 2 02 Oct 03:40:00 03:45:09 58° 288° (WNW) 03:50:16 436.500 FM
JAS-1B 02 Oct 03:49:18 03:54:43 46° 290° (WNW) 04:00:33 435.800 - 435.900 CW/SSB
AO-7 02 Oct 03:50:39 03:55:59 18° 91° (E) 04:01:18 29.400 - 29.500 MHz
KITSAT 1 02 Oct 03:51:50 03:58:31 30° 254° (WSW) 04:05:10 435.175 FM
UOSAT-12 02 Oct 03:57:03 03:57:23 10° 33° (NNE) 03:57:43 437.025 FM, 437.400 FM
Oscar 16 02 Oct 04:08:29 04:11:23 15° 299° (WNW) 04:14:17 437.025 USB, Beacon 2401.1428
AO-Echo 02 Oct 04:08:59 04:13:10 27° 293° (WNW) 04:17:25 ?
AO-27 02 Oct 04:18:39 04:23:03 28° 294° (WNW) 04:27:27 436.795 MHz FM
ISS 02 Oct 04:46:33 04:49:51 65° 219° (SW) 04:53:08 145.800 FM
OPAL 02 Oct 04:47:04 04:52:16 74° 72° (ENE) 04:57:29 ?
Gurwin Techsat 1B 02 Oct 04:48:52 04:53:27 30° 293° (WNW) 04:58:01 435.225 FM
RS-15 02 Oct 04:51:58 05:01:39 34° 324° (NW) 05:11:24 29.354 - 29.394 USB, Beacon 29.352 USB
SO-50 02 Oct 05:12:25 05:16:28 27° 247° (WSW) 05:20:32 436.795 FM
MaSat-1 02 Oct 05:13:28 05:18:07 47° 111° (ESE) 05:22:35 437.345 MHz
JAS-2 02 Oct 05:15:13 05:19:39 18° 91° (E) 05:24:18 435.800 - 435.900 CW/SSB, 435.910 FM
TMSAT-1 02 Oct 05:17:14 05:21:20 23° 296° (WNW) 05:25:26 436.925 FM
Uosat F 02 Oct 05:30:36 05:35:41 89° 104° (ESE) 05:40:44 435.120 FM
UOSAT-12 02 Oct 05:34:00 05:38:38 52° 53° (NE) 05:43:11 437.025 FM, 437.400 FM
Hamsat 02 Oct 05:40:59 05:42:46 12° 90° (E) 05:44:31 145.90 MHz
AO-7 02 Oct 05:41:22 05:49:43 88° 289° (WNW) 05:58:02 29.400 - 29.500 MHz
STRAND 1 02 Oct 05:51:53 05:55:45 22° 64° (ENE) 05:59:38 ?
OPAL 02 Oct 06:29:13 06:31:39 13° 268° (W) 06:34:06 ?
MaSat-1 02 Oct 06:51:04 06:54:45 22° 306° (NW) 06:58:17 437.345 MHz
JAS-2 02 Oct 06:58:24 07:05:10 84° 285° (WNW) 07:12:41 435.800 - 435.900 CW/SSB, 435.910 FM
SO-67 02 Oct 07:07:35 07:09:20 13° 92° (E) 07:11:05 435.3500 MHz FM
RS-15 02 Oct 07:11:24 07:18:44 19° 359° (N) 07:26:10 29.354 - 29.394 USB, Beacon 29.352 USB
Uosat F 02 Oct 07:11:58 07:13:42 12° 301° (WNW) 07:15:27 435.120 FM
Hamsat 02 Oct 07:14:57 07:19:02 52° 286° (WNW) 07:23:05 145.90 MHz
UOSAT-12 02 Oct 07:15:11 07:18:21 18° 250° (WSW) 07:21:29 437.025 FM, 437.400 FM
STRAND 1 02 Oct 07:29:47 07:34:38 45° 261° (W) 07:39:32 ?
AO-7 02 Oct 07:35:43 07:41:24 21° 308° (NW) 07:47:05 29.400 - 29.500 MHz
Sapphire 02 Oct 08:31:08 08:35:11 22° 106° (ESE) 08:39:15 437.095 MHz 1200 baud AX-25 AFSK
SO-67 02 Oct 08:39:21 08:42:27 31° 288° (WNW) 08:45:32 435.3500 MHz FM
JAS-2 02 Oct 08:45:33 08:49:25 16° 301° (WNW) 08:53:30 435.800 - 435.900 CW/SSB, 435.910 FM
HO-68 02 Oct 08:47:48 08:53:03 21° 92° (E) 08:58:16 435.675 MHz FM
PCSat 02 Oct 08:55:27 09:00:26 39° 111° (ESE) 09:05:27 145.825 MHz
RS-15 02 Oct 09:26:26 09:36:03 32° 34° (NE) 09:45:53 29.354 - 29.394 USB, Beacon 29.352 USB
Oscar 11 02 Oct 09:37:53 09:40:13 14° 91° (E) 09:42:32 145.825 FM, Beacon 2401.500 USB
